Location: Mentone
(34.5413°N, 85.5351°W)
Time: 17:01:52
(UTC-05:00)

Uosat F - Visible Passes

Search period start: 28 May 2015 00:00
Search period end: 07 June 2015 00:00
Orbit: 751 x 762 km, 98.7° (Epoch: 27 May)

Date Brightness Start Highest point End Pass type
(mag) Time Alt. Az. Time Alt. Az. Time Alt. Az.
29 May 13.6 04:42:24 10° NE 04:46:02 20° E 04:49:49 10° SE visible
31 May 12.9 05:01:52 10° NE 05:06:20 32° E 05:10:53 10° SSE visible
01 Jun 13.9 04:24:40 10° ENE 04:26:37 12° E 04:28:53 10° ESE visible
03 Jun 13.6 04:43:22 10° NE 04:47:00 21° E 04:50:49 10° SE visible
06 Jun 13.9 04:25:36 10° ENE 04:27:36 13° E 04:29:54 10° ESE visible
